TimeAKST,TemperatureF,Dew PointF,Humidity,Sea Level PressureIn,VisibilityMPH,Wind Direction,Wind SpeedMPH,Gust SpeedMPH,PrecipitationIn,Events,Conditions,WindDirDegrees,DateUTC
12:16 AM,24.8,21.2,86,29.84,10.0,NNW,3.5,-,N/A,,Overcast,340,2012-12-28 09:16:00
12:36 AM,24.8,21.2,86,29.84,9.0,NW,6.9,-,N/A,,Overcast,320,2012-12-28 09:36:00
12:56 AM,24.8,21.2,86,29.85,10.0,NW,8.1,-,N/A,,Overcast,310,2012-12-28 09:56:00
1:16 AM,24.8,21.2,86,29.85,10.0,NW,4.6,-,N/A,,Overcast,320,2012-12-28 10:16:00
1:36 AM,24.8,21.2,86,29.85,10.0,North,5.8,-,N/A,,Overcast,360,2012-12-28 10:36:00
1:56 AM,26.6,21.2,80,29.85,10.0,Calm,Calm,-,N/A,,Overcast,0,2012-12-28 10:56:00
2:16 AM,26.6,21.2,80,29.85,10.0,NNW,4.6,-,N/A,,Overcast,340,2012-12-28 11:16:00
2:36 AM,24.8,21.2,86,29.85,10.0,NNW,4.6,-,N/A,,Overcast,340,2012-12-28 11:36:00
2:56 AM,26.6,21.2,80,29.85,10.0,North,5.8,-,N/A,,Overcast,350,2012-12-28 11:56:00
3:16 AM,26.6,21.2,80,29.85,10.0,NW,5.8,-,N/A,,Overcast,320,2012-12-28 12:16:00
3:36 AM,26.6,21.2,80,29.86,10.0,NNW,5.8,-,N/A,,Overcast,340,2012-12-28 12:36:00
3:56 AM,26.6,23.0,86,29.86,9.0,North,3.5,-,N/A,,Overcast,350,2012-12-28 12:56:00
4:16 AM,26.6,23.0,86,29.86,10.0,North,3.5,-,N/A,,Overcast,10,2012-12-28 13:16:00
4:36 AM,26.6,21.2,80,29.86,10.0,North,6.9,-,N/A,,Overcast,350,2012-12-28 13:36:00
4:56 AM,26.6,23.0,86,29.86,10.0,North,6.9,-,N/A,,Overcast,350,2012-12-28 13:56:00
5:16 AM,26.6,21.2,80,29.85,10.0,WNW,3.5,-,N/A,,Overcast,300,2012-12-28 14:16:00
5:36 AM,26.6,21.2,80,29.86,10.0,NW,5.8,-,N/A,,Overcast,310,2012-12-28 14:36:00
5:56 AM,24.8,21.2,86,29.86,10.0,NNW,6.9,-,N/A,,Unknown,330,2012-12-28 14:56:00
6:16 AM,26.6,21.2,80,29.86,10.0,NNW,5.8,-,N/A,,Overcast,330,2012-12-28 15:16:00
6:36 AM,24.8,19.4,80,29.86,10.0,NW,5.8,-,N/A,,Overcast,310,2012-12-28 15:36:00
6:56 AM,24.8,21.2,86,29.87,10.0,NNW,6.9,-,N/A,,Overcast,340,2012-12-28 15:56:00
7:16 AM,26.6,21.2,80,29.87,10.0,NNW,4.6,-,N/A,,Overcast,340,2012-12-28 16:16:00
7:36 AM,26.6,21.2,80,29.88,10.0,North,4.6,-,N/A,,Overcast,350,2012-12-28 16:36:00
7:56 AM,26.6,21.2,80,29.88,10.0,NNW,5.8,-,N/A,,Overcast,340,2012-12-28 16:56:00
8:16 AM,26.6,24.8,93,29.89,10.0,NNW,3.5,-,N/A,,Overcast,340,2012-12-28 17:16:00
8:36 AM,28.4,24.8,86,29.90,10.0,NNW,4.6,-,N/A,,Overcast,340,2012-12-28 17:36:00
8:56 AM,28.4,23.0,80,29.90,3.0,NNW,4.6,-,N/A,,Overcast,340,2012-12-28 17:56:00
9:16 AM,26.6,23.0,86,29.91,3.0,NNW,5.8,-,N/A,,Overcast,330,2012-12-28 18:16:00
9:36 AM,26.6,23.0,86,29.91,3.0,NW,3.5,-,N/A,,Overcast,320,2012-12-28 18:36:00
9:56 AM,26.6,23.0,86,29.92,4.0,North,3.5,-,N/A,,Overcast,350,2012-12-28 18:56:00
10:16 AM,26.6,24.8,93,29.92,4.0,North,4.6,-,N/A,,Overcast,350,2012-12-28 19:16:00
10:36 AM,28.4,24.8,86,29.93,4.0,NW,5.8,-,N/A,,Overcast,320,2012-12-28 19:36:00
10:56 AM,28.4,23.0,80,29.93,3.0,NNW,4.6,-,N/A,,Overcast,330,2012-12-28 19:56:00
11:16 AM,28.4,24.8,86,29.93,3.0,NNW,5.8,-,N/A,,Overcast,330,2012-12-28 20:16:00
11:36 AM,28.4,24.8,86,29.94,3.0,NNW,4.6,-,N/A,,Overcast,340,2012-12-28 20:36:00
11:56 AM,28.4,24.8,86,29.94,3.0,North,3.5,-,N/A,,Overcast,350,2012-12-28 20:56:00
12:16 PM,28.4,24.8,86,29.95,4.0,NNW,4.6,-,N/A,,Overcast,330,2012-12-28 21:16:00
12:36 PM,28.4,24.8,86,29.96,3.0,NW,5.8,-,N/A,,Overcast,320,2012-12-28 21:36:00
12:56 PM,28.4,24.8,86,29.96,3.0,NNW,3.5,-,N/A,,Overcast,340,2012-12-28 21:56:00
1:16 PM,28.4,24.8,86,29.97,3.0,NNW,3.5,-,N/A,,Overcast,340,2012-12-28 22:16:00
1:36 PM,28.4,24.8,86,29.97,3.0,WNW,4.6,-,N/A,,Overcast,300,2012-12-28 22:36:00
1:56 PM,28.4,24.8,86,29.98,3.0,NNW,4.6,-,N/A,,Overcast,330,2012-12-28 22:56:00
2:16 PM,28.4,24.8,86,29.98,3.0,Calm,Calm,-,N/A,,Overcast,0,2012-12-28 23:16:00
2:36 PM,30.2,26.6,86,29.98,3.0,Calm,Calm,-,0.01,,Overcast,0,2012-12-28 23:36:00
2:56 PM,30.2,26.6,86,29.99,2.0,NNW,3.5,-,0.01,,Mostly Cloudy,340,2012-12-28 23:56:00
3:16 PM,28.4,24.8,86,29.99,2.0,North,4.6,-,N/A,,Mostly Cloudy,350,2012-12-29 00:16:00
3:36 PM,28.4,26.6,93,29.99,2.0,NNW,4.6,-,N/A,,Mostly Cloudy,340,2012-12-29 00:36:00
3:56 PM,28.4,26.6,93,29.99,4.0,NNW,4.6,-,0.01,,Overcast,340,2012-12-29 00:56:00
4:16 PM,28.4,26.6,93,30.00,4.0,NNW,5.8,-,N/A,,Overcast,340,2012-12-29 01:16:00
4:36 PM,28.4,24.8,86,30.01,4.0,NNW,3.5,-,N/A,,Overcast,340,2012-12-29 01:36:00
4:56 PM,28.4,24.8,86,30.02,4.0,NNW,4.6,-,N/A,,Overcast,340,2012-12-29 01:56:00
5:16 PM,28.4,24.8,86,30.02,4.0,NNW,3.5,-,N/A,,Overcast,330,2012-12-29 02:16:00
5:36 PM,28.4,24.8,86,30.02,4.0,NNW,3.5,-,N/A,,Overcast,340,2012-12-29 02:36:00
5:56 PM,28.4,24.8,86,30.02,4.0,NNW,4.6,-,N/A,,Overcast,330,2012-12-29 02:56:00
6:16 PM,28.4,24.8,86,30.03,4.0,NW,5.8,-,0.01,,Overcast,310,2012-12-29 03:16:00
6:36 PM,28.4,24.8,86,30.04,4.0,NW,4.6,-,0.01,,Overcast,310,2012-12-29 03:36:00
6:56 PM,28.4,24.8,86,30.05,9.0,NNW,3.5,-,0.01,,Overcast,330,2012-12-29 03:56:00
7:16 PM,28.4,24.8,86,30.06,9.0,NNW,5.8,-,N/A,,Overcast,330,2012-12-29 04:16:00
7:36 PM,28.4,24.8,86,30.06,9.0,Calm,Calm,-,N/A,,Overcast,0,2012-12-29 04:36:00
7:56 PM,28.4,24.8,86,30.06,7.0,NW,4.6,-,N/A,,Overcast,310,2012-12-29 04:56:00
8:16 PM,26.6,23.0,86,30.07,7.0,WNW,4.6,-,N/A,,Overcast,300,2012-12-29 05:16:00
8:36 PM,28.4,24.8,86,30.08,7.0,NNW,4.6,-,N/A,,Overcast,330,2012-12-29 05:36:00
8:56 PM,28.4,24.8,86,30.08,7.0,NW,5.8,-,N/A,,Overcast,320,2012-12-29 05:56:00
9:16 PM,28.4,24.8,86,30.09,7.0,NNW,4.6,-,N/A,,Overcast,340,2012-12-29 06:16:00
9:36 PM,28.4,26.6,93,30.10,7.0,NNW,3.5,-,N/A,,Overcast,330,2012-12-29 06:36:00
9:56 PM,28.4,26.6,93,30.11,9.0,NNW,3.5,-,N/A,,Overcast,330,2012-12-29 06:56:00
10:16 PM,28.4,26.6,93,30.12,9.0,WNW,4.6,-,N/A,,Overcast,300,2012-12-29 07:16:00
10:36 PM,28.4,24.8,86,30.12,9.0,NW,4.6,-,N/A,,Overcast,320,2012-12-29 07:36:00
10:56 PM,28.4,26.6,93,30.12,9.0,NW,5.8,-,N/A,,Overcast,320,2012-12-29 07:56:00
11:16 PM,28.4,24.8,86,30.13,8.0,NW,5.8,-,0.01,,Overcast,310,2012-12-29 08:16:00
11:36 PM,28.4,26.6,93,30.14,10.0,NNW,5.8,-,0.01,,Overcast,330,2012-12-29 08:36:00
11:56 PM,30.2,26.6,86,30.14,10.0,NW,4.6,-,0.01,,Overcast,320,2012-12-29 08:56:00